STARLINK-1810 (46709 NORAD) Tracking and Keplerian Element Data
This shows tracking and keplerian element data for the satellite.
Feedback or suggestion? Click here.
Element | Value |
Catalog | 46709 |
Name | STARLINK-1810 |
Epoch Orbit | 180 |
Epoch Day | 20.91667824 |
Epoch Year | 2021 |
RAAN | 28.3419 |
Inclination | 53.0458 |
Eccentricity | 0.00013 |
Argument of Perigee | 60.5907 |
Mean Anonmoly | 256.937 |
Mean Motion | 15.06368604 |
Decay Rate | 0.00042871 |
L1 | 1 46709U 20073AR 21020.91667824 .00042871 00000-0 28820-2 0 9990 |
L2 | 2 46709 53.0458 28.3419 0001300 60.5907 256.9370 15.06368604 1801 |
Live tracking and technical data element details for STARLINK-1810 (NORAD 46709). STARLINK-1810 can be tracked NOW for your location showing map with azimuth and elevation plus other details from your city location.
Track the satellite on the map from your city or location and see movement details for azimuth, elevation, latitude, longitude, range, height, and movement on the map or in text.
IsCatalogInMostPopularTable: catalog: 46709, numindb: 29
Update: records affected: 1
GetName: 46709 STARLINK-1810
Hit Count: updated at: Fri, 22 Jan 2021 16:01:31 GMT